Kralendijk, Netherlands

12:50 AM AST on January 19, 2018 (GMT -0400)
Kralendijk

Weather History for 78990 - November, 2012

Change the Weather History Date:

Tuesday, November 27, 2012

  Actual Average Record
Temperature  
Mean Temperature 84 °F -  
Max Temperature 88 °F 85 °F - ()
Min Temperature 79 °F 77 °F - ()
Cooling Degree Days 18    
Growing Degree Days 34 (Base 50)    
Moisture  
Dew Point 75 °F    
Average Humidity 74    
Maximum Humidity 89    
Minimum Humidity 61    
Precipitation  
Precipitation 0.00 in - - ()
Sea Level Pressure  
Sea Level Pressure 29.94 in    
Wind  
Wind Speed 12 mph ()    
Max Wind Speed 20 mph    
Max Gust Speed -    
Visibility 8.3 miles    
Events Rain    
T = Trace of Precipitation, MM = Missing Value Source: Averaged Metar Reports

Daily Weather History Graph

Daily Weather History Graph

Search for Another Location

Airport or City:

Trip Planner

Search our weather history database for the weather conditions in past years. The results will help you decide how hot, cold, wet, or windy it might be!

Date:

Astronomy

Nov. 27, 2012 Rise Set
Actual Time 6:36 AM AST 6:05 PM AST
Civil Twilight 6:13 AM AST 6:28 PM AST
Nautical Twilight 5:47 AM AST 6:54 PM AST
Astronomical Twilight 5:21 AM AST 7:20 PM AST
Moon 5:31 PM AST (11/27) 5:42 AM AST (11/27)
Length of Visible Light 12h 14m
Length of Day
11h 29m
Waxing Gibbous, 99% of the Moon is Illuminated
Nov 27
Waxing Gibbous
Nov 28
Full
Dec 6
Last Quarter
Dec 13
New
Dec 20
First Quarter

Hourly Weather History & Observations

Time (AST) Temp. Heat Index Dew Point Humidity Pressure Visibility Wind Dir Wind Speed Gust Speed Precip Events Conditions
1:00 AM 82.4 °F 89.5 °F 75.2 °F 79% 29.95 in - East 12.7 mph - N/A   Unknown
2:00 AM 80.6 °F 87.1 °F 77.0 °F 89% 29.92 in - East 13.8 mph - N/A Rain Light Rain
3:00 AM 80.6 °F 86.2 °F 75.2 °F 84% 29.89 in - East 11.5 mph - N/A   Unknown
4:00 AM 80.6 °F 86.2 °F 75.2 °F 84% 29.89 in - East 10.4 mph - N/A   Unknown
5:00 AM 80.6 °F 86.2 °F 75.2 °F 84% 29.92 in - East 10.4 mph - N/A   Unknown
6:00 AM 80.6 °F 86.2 °F 75.2 °F 84% 29.92 in - East 12.7 mph - N/A   Unknown
8:00 AM 84 °F - 75 °F 69% 29.98 in 22 mi East 12.7 mph - -   Partly Cloudy
8:00 AM 84.2 °F 92.3 °F 75.2 °F 74% 29.98 in 6.2 mi East 12.7 mph - N/A   Partly Cloudy
9:00 AM 86.0 °F 95.1 °F 75.2 °F 70% 29.98 in 6.2 mi East 15.0 mph - N/A   Scattered Clouds
10:00 AM 87.8 °F 99.7 °F 77.0 °F 70% 29.98 in 6.2 mi East 15.0 mph - N/A   Scattered Clouds
11:00 AM 87 °F - 76 °F 61% 30.01 in 22 mi East 19.6 mph - -   Partly Cloudy
11:00 AM 87.8 °F 97.6 °F 75.2 °F 66% 29.98 in 6.2 mi East 17.3 mph - N/A   Scattered Clouds
12:00 PM 87.8 °F 97.6 °F 75.2 °F 66% 29.98 in - North - - N/A   Unknown
1:00 PM 86.0 °F 93.4 °F 73.4 °F 66% 29.95 in 6.2 mi East 17.3 mph - N/A   Scattered Clouds
2:00 PM 87.8 °F 95.6 °F 73.4 °F 62% 29.92 in 6.2 mi East 17.3 mph - N/A   Scattered Clouds
4:00 PM 86.0 °F 93.4 °F 73.4 °F 66% 29.89 in 6.2 mi East 16.1 mph - N/A   Scattered Clouds
5:00 PM 85 °F - 74 °F 63% 29.90 in 22 mi East 13.8 mph - -   Partly Cloudy
5:00 PM 84.2 °F 90.9 °F 73.4 °F 70% 29.89 in 6.2 mi East 13.8 mph - N/A   Scattered Clouds
6:00 PM 84.2 °F 90.9 °F 73.4 °F 70% 29.89 in 6.2 mi East 12.7 mph - N/A   Scattered Clouds
8:00 PM 82 °F - 74 °F 72% 29.93 in 19 mi East 8.1 mph - -   Partly Cloudy
8:00 PM 82.4 °F 89.5 °F 75.2 °F 79% 29.92 in 6.2 mi East 8.1 mph - N/A   Scattered Clouds
11:00 PM 80 °F - 76 °F 82%  in 19 mi East 10.4 mph - -   Clear
11:00 PM 80.6 °F 86.2 °F 75.2 °F 84% 29.95 in - North - - N/A   Unknown